Showing default

OPS 9325 (IDSCS 12), 2652

Orbit data source: Space-Track

OPS 9325 (IDSCS 12), 2652 is a payload satellite owned by USAF SSD (US) in GEO that was launched on Wed, 18 Jan 1967 UTC via a TITAN IIIC launch vehicle from the Air Force Eastern Test Range (AFETR). Payload-class satellites include a variety of spacecraft equipped with specific instruments for various scientific and technological missions. These include communications satellites like Starlink; space stations such as the ISS; scientific satellites like the Hubble; Earth observation satellites from companies like Planet Labs, Umbra, and HawkEye 360; GPS; miniature CubeSats for education and research; and military/defense satellites.

Not visible in the next 10 days
Identifier
2652, 1967-003E
Orbit
GEO
Last TLE update
6 days ago
Origin
Manufacturer
Philco-Ford WDL
Mission
Non-operational Defense Communications
Bus & Motor
IDCSP, Unknown motor
Mass
45 kg wet, 45 kg dry
Launch date (UTC)
1967-01-18 (58 years ago)
Launch vehicle
TITAN IIIC
Launch site
Air Force Eastern Test Range (AFETR)
Object type
Payload
Rocket body
Debris
Shape & HBR
Ico Poly, 0.9 m
Radar Cross Section
0.926 m², Small (<0.1 m²)

Expand to show TLE details & history

TLE from 6 days ago
0 OPS 9325 (IDSCS 12)
1 02652U 67003E   25184.66180056 -.00000112  00000-0  00000-0 0  9998
2 02652   7.5986  48.9261 0039639  70.6875 289.7054  1.07944238136356
Epoch: 2025-07-03T15:52Z
TLE epoch observation values (Epoch: 2025-07-03T15:52:59.568Z)
Latitude
-0.00001°
Longitude
-111.27849°
Altitude
33,709.969 km
Speed
3.155 km/s
True Right ascension
03h 15m 34s
True Declination
0° 00' 00"
Sunlit
Object was in daylight at epoch
Visualization orbit readout
Latitude
3.57854°
Longitude
-83.51485°
Altitude
33,645.592 km
Speed
3.161 km/s
Apparent Right ascension
05h 19m 37s
Apparent Declination
-2° 02' 24"
Sunlit
Object is in daylight
Visualization observer readout
Local Sidereal Time
19:09:37
Azimuth
40.441° NE
Elevation
-44.645°
Doppler factor
1
Orbital elements
Apogee altitude
33,924.375 km
Perigee altitude
33,606.127 km
Semi-major axis
40,143.388 km
Eccentricity
0.00396
Inclination
7.5986°
RAAN
48.9261°
Arg. of periapsis
70.6875°
True anomaly
Unknown
Mean anomaly
289.7054°
Eccentric anomaly
Unknown
Mean motion
0.26985 °/min
Orbital period
1,334.08 mins
BSTAR
0
Loading historical data...
2652 neighbors
Loading maneuver chart data...
Loading SW <> Apogee altitude chart data...
Loading historical data...
Loading historical data...
Loading historical data...
Loading historical data...
Loading historical data...
Loading historical data...
Loading historical data...

OPS 9325 (IDSCS 12) Visibility

Observer location: undefined°, undefined°

OPS 9325 (IDSCS 12) is likely not visible in the next few days
Span
Click to sort rows by Start time (UTC) header in descending order
Start Az.
Max El. time (UTC)
Max El. Az.
Max El.
End time (UTC)
End Az.
|